STARLINK-11416, 62594

Orbit data source: Space-Track

STARLINK-11416, 62594 is a payload satellite owned by SpaceX/Seattle (US) in LEO that was launched on Mon, 13 Jan 2025 UTC via an FALCON 9 launch vehicle from the Air Force Eastern Test Range (AFETR). Payload-class satellites include a variety of spacecraft equipped with specific instruments for various scientific and technological missions. These include communications satellites like Starlink; space stations such as the ISS; scientific satellites like the Hubble; Earth observation satellites from companies like Planet Labs, Umbra, and HawkEye 360; GPS; miniature CubeSats for education and research; and military/defense satellites.

Loading next visibility...
Identifier
62594, 2025-008H
Orbit
LEO
Country
Flag of USUS
Related business
Manufacturer
SpaceX/Seattle
Mission
Operational Commercial Communications
Bus & Motor
STARLINK V2M, Unknown motor
Mass
730 kg wet, ~700 kg dry
Launch date (UTC)
2025-01-13 (8 months ago)
Launch vehicle
FALCON 9
Launch site
Air Force Eastern Test Range (AFETR)
Object type
Payload
Rocket body
Debris
Shape & HBR
Box + 2 Pan, 14.5 m
Radar Cross Section
36.964 m², Large (>1 m²)

Expand to show TLE details & history
Last TLE update: 2 days ago

TLE from 2 days ago
0 STARLINK-11416
1 62594U 25008H   25241.26093833  .00243648  00000-0  18436-2 0  9990
2 62594  43.0003 205.7174 0002449 267.5689  92.4899 15.70885689 36856
Epoch: 2025-08-29T06:15Z
TLE epoch observation values (Epoch: 2025-08-29T06:15:45.071Z)
Latitude
0.00002°
Longitude
134.06749°
Altitude
356.208 km
Speed
7.697 km/s
True Right ascension
13h 42m 52s
True Declination
0° 00' 00"
Sunlit
Object was in daylight at epoch
Visualization orbit readout
Latitude
Unknown
Longitude
Unknown
Altitude
Unknown
Speed
Unknown
Apparent Right ascension
Unknown
Apparent Declination
Unknown
Sunlit
N/A
Visualization observer readout
Local Sidereal Time
16:04:37
Azimuth
Unknown
Elevation
Unknown
Doppler factor
Unknown
Orbital elements
Apogee altitude
359.996 km
Perigee altitude
356.696 km
Semi-major axis
6,736.483 km
Eccentricity
0.00024
Inclination
43.0003°
RAAN
205.7174°
Arg. of periapsis
267.5689°
True anomaly
92.51794°
Mean anomaly
92.4899°
Eccentric anomaly
92.50392°
Mean motion
3.92549 °/min
Orbital period
91.71 mins
BSTAR
0.0018436
Loading maneuver chart data...
Computing Atmospheric mass density...
Loading historical data...
Loading historical data...
Loading historical data...
Loading historical data...
Loading historical data...
Loading historical data...
Loading historical data...

Documentation

Showing up to 5 results
|